Find Kosmos-1141

NORAD ID: 11585 Int'l Des: 1979-090 Owner: VMF Country: SU operational
LEOCIRCULARPOLAR

Aktuelle Ansicht

3D-Globus wird geladen...

Über Kosmos-1141

Beschreibung wird geladen...

Nächste Überflüge

Passes for default location (London). Set your location on the main map for personalized predictions.

Höhenverlauf

Loading altitude history...

Zweizeiliger Elementsatz

1 11585U 79090A 26151.24221931 .00000098 00000-0 83151-4 0 9993
2 11585 82.9495 203.5868 0029297 180.4056 246.5236 13.77197214323316
Epoch: 31. Mai 2026 • Age: 15 hours

Aktueller Status

Höhe 963.6 km
Geschwindigkeit 7.38 km/s
Subsatellitenpunkt -24.55°S, 169.41°W
Startdatum 16. Okt. 1979
Alter 46.6 years
Typ other

Technische Details

Klassifizierung Payload
Masse 800.00 kg
Trockenmasse 800.00 kg
Gesamtmasse 800.00 kg
Länge 5.00 m
Durchmesser 2.10 m
Spannweite 17.00 m
Form Cyl + Ant
Hersteller OAZ
Bus-Typ KAUR-1 11F627
Phasenstatus In Orbit
Besitzer/Staat VMF/SU

Most Searched